Location: Clavering
(51.9667°N, 0.1333°E)
Time: 12:43:03
(UTC+00:00)

Daily predictions for brighter satellites

Satellite Brightness Start Highest point End
(mag) Time Altitude Azimuth Time Altitude Azimuth Time Altitude Azimuth
USA 276 2.7 20:32:11 10° W 20:35:12 43° SSW 20:38:13 10° ESE
NOSS 3-4 (A) 4.2 20:30:33 10° WSW 20:36:25 61° NW 20:42:53 10° NE
BREEZE-M DEB (TANK) 2.9 20:33:53 10° W 20:36:31 38° SSW 20:42:13 10° SE
NOSS 3-4 (C) 4.1 20:30:40 10° WSW 20:36:31 61° NW 20:42:59 10° NE
Cosmos 1697 Rocket 4.5 20:32:51 10° NW 20:37:38 29° WSW 20:42:24 10° SSW
SPOT 1/Viking Rocket 3.6 20:32:45 10° SSE 20:37:56 72° ENE 20:43:09 10° NNW
SAR-Lupe-4 4.5 20:35:49 10° N 20:39:21 53° WNW 20:42:50 10° SSW
Cosmos 1151 Rocket 4.0 20:35:31 10° N 20:39:27 32° ENE 20:43:23 10° SE
Cosmos 1076 Rocket 3.5 20:35:11 10° S 20:39:32 80° E 20:43:55 10° NNE
ATLAS 5 CENTAUR R/B 3.8 20:36:03 10° NW 20:40:12 26° NNE 20:44:58 10° ENE
OBJECT-B 3.7 20:40:41 10° SW 20:42:30 14° W 20:44:20 10° NW
ATLAS 2AS CENTAUR R/B 3.2 20:37:20 10° SW 20:45:17 84° NW 20:52:59 10° NE
Cosmos 773 Rocket 4.4 20:43:00 10° SSW 20:48:11 70° WNW 20:53:22 10° NNE
ATLAS 3B R/B 3.3 20:41:49 10° NW 20:48:41 56° SW 20:55:49 10° SSE
Cosmos 1833 Rocket 3.8 20:44:52 10° SW 20:50:20 50° NW 20:55:50 10° NNE
Terra 2.8 20:48:07 10° SE 20:52:24 35° ENE 20:56:43 10° N
SPOT 5 3.2 20:50:52 10° SE 20:54:58 45° ENE 20:59:12 10° N
Cosmos 2082 Rocket 2.5 20:51:16 10° SW 20:56:54 77° WNW 21:02:37 10° NNE
Cosmos 2056 Rocket 4.2 20:52:07 10° NNW 20:57:17 44° NE 21:02:09 11° SE
Cosmos 1092 Rocket 4.1 20:51:27 10° S 20:57:36 64° E 21:03:52 10° NNE
Meteor 2-19 Rocket 4.4 20:51:42 10° S 20:57:42 71° E 21:03:44 10° NNE
Cosmos 1633 3.3 20:55:20 10° SSW 20:58:52 55° WNW 21:02:28 10° N
BREEZE-M DEB (TANK) 2.4 20:59:20 10° WSW 21:01:44 33° S 21:03:12 13° ESE
Cosmos 332 Rocket 4.1 20:58:58 10° NNW 21:03:49 66° WSW 21:08:40 10° SSE
Cosmos 2360 Rocket 2.7 20:59:32 10° NNW 21:05:01 49° NE 21:10:08 12° SE
ERS-1 Rocket 3.2 21:00:35 11° SSE 21:05:25 60° ENE 21:10:23 10° N
SL-27 R/B 4.5 21:06:23 12° ESE 21:07:28 13° E 21:09:13 10° ENE
Cosmos 158 Rocket 4.0 21:03:26 10° SSW 21:08:34 73° ESE 21:13:53 10° NNE
ATLAS CENTAUR R/B 4.5 21:03:18 10° WNW 21:09:56 72° NNE 21:28:14 10° ESE
Cosmos 2026 Rocket 4.1 21:04:20 10° S 21:10:35 64° E 21:16:47 10° NNE
GP-B 3.1 21:07:09 10° N 21:11:37 69° E 21:16:01 10° S
ISS -1.9 21:11:15 10° W 21:13:48 20° SW 21:15:56 12° S
Cosmos 2333 Rocket 3.3 21:10:15 10° NNW 21:15:26 35° NE 21:20:35 10° ESE
Meteor 1-26 Rocket 4.5 21:11:52 10° NNW 21:17:52 80° W 21:23:41 10° S
Cosmos 1371 Rocket 4.2 21:13:32 10° NNW 21:18:55 67° ENE 21:23:22 15° SE
Spot 2 Rocket 3.6 21:14:55 10° SSE 21:20:02 79° WSW 21:25:11 10° NNW
Cosmos 1812 3.1 21:16:29 10° N 21:20:16 48° ENE 21:23:04 17° SE
Cosmos 220 Rocket 4.0 21:18:04 10° NNW 21:22:25 75° ENE 21:25:50 16° SSE
Cosmos 2112 Rocket 4.5 21:18:25 10° S 21:23:22 42° ESE 21:28:19 10° NE
CZ-2C R/B 3.7 21:19:05 10° NNE 21:23:40 86° WNW 21:28:08 10° SSW
Cosmos 1680 Rocket 3.8 21:18:47 10° S 21:23:50 48° ESE 21:28:53 10° NE
Cosmos 1980 Rocket 4.1 21:21:31 10° NW 21:25:51 23° WSW 21:30:11 10° SSW
Okean 3 Rocket 3.8 21:24:58 12° S 21:29:02 56° E 21:33:28 10° NNE
RESURS DK-1 4.1 21:25:24 10° WSW 21:29:17 38° NW 21:33:12 10° NNE
Cosmos 292 Rocket 4.4 21:25:31 10° NNW 21:30:08 46° ENE 21:33:40 16° SE
USA 245 4.4 21:25:49 10° S 21:30:42 49° WSW 21:34:42 10° NNW
USA 234 3.6 21:24:40 10° E 21:31:09 67° NNE 21:37:40 10° WNW
Cosmos 2237 Rocket 4.3 21:31:26 10° NNW 21:35:34 20° NNE 21:39:40 10° ENE
Cosmos 2322 Rocket 2.3 21:31:41 10° NNW 21:37:20 72° WSW 21:41:46 17° SSE
Resurs 01 Rocket 3.9 21:39:09 10° SW 21:42:25 20° W 21:45:42 10° NW
Cosmos 1408 Rocket 4.1 21:40:12 19° SSE 21:42:55 42° E 21:47:01 10° NNE
Cosmos 2151 4.3 21:40:20 10° SW 21:44:20 40° WNW 21:48:24 10° N
Gblst 52 Del rocket 4.4 21:42:09 10° W 21:48:07 85° S 21:55:00 10° E
Meteor 2-14 Rocket 4.5 21:43:59 12° S 21:49:37 69° E 21:55:45 10° NNE
Cosmos 1553 Rocket 4.0 21:44:28 10° N 21:50:35 85° W 21:55:36 16° S
Cosmos 2084 3.8 21:48:52 13° S 21:52:07 38° SE 21:56:00 10° ENE
Gbstr 26 Del rocket 4.1 21:50:48 10° W 21:53:56 25° SSW 21:55:26 20° S
CZ-4B DEB 4.1 21:53:29 27° SSE 21:55:03 88° ENE 21:58:14 10° NNW
Meteor 2-3 Rocket 4.4 21:49:50 10° SSW 21:55:24 56° WNW 22:01:04 10° N
Cosmos 2266 Rocket 4.4 21:53:30 19° SSE 21:57:39 48° E 22:03:36 10° NNE
Cosmos 2219 Rocket 2.7 21:53:28 10° NNW 21:58:58 52° NE 22:02:58 18° ESE
Cosmos 1624 Rocket 4.1 21:54:13 10° NNW 21:59:25 70° WSW 22:02:57 21° S
Cosmos 1862 3.2 21:57:03 21° S 21:59:39 71° E 22:03:38 10° NNE
Cosmos 1782 4.3 21:58:33 10° NNW 22:02:10 32° W 22:05:38 11° SSW
Cosmos 2228 Rocket 3.8 21:59:37 10° N 22:03:49 40° ENE 22:06:05 23° SE
Cosmos 1515 Rocket 3.5 21:59:34 10° N 22:04:03 89° ENE 22:06:43 24° S
H-2A R/B 3.6 22:00:50 10° NNE 22:04:58 54° E 22:07:15 25° S
SL-16 R/B 3.3 22:00:28 10° NW 22:05:38 37° WSW 22:09:55 14° S
NOSS 2-1 (E) 3.3 22:05:22 32° SSE 22:06:12 38° SE 22:09:28 10° ENE
NOSS 3-1 (C) 4.0 22:00:43 10° NW 22:07:57 88° NE 22:14:29 19° SE
ARIANE 5 R/B 4.0 22:04:24 11° SSW 22:08:15 33° W 22:12:19 10° NNW
Cosmos 2333 4.2 22:02:59 10° NNW 22:08:38 78° ENE 22:12:13 23° SE
Cosmos 1420 Rocket 4.0 22:05:05 10° NNW 22:10:26 82° WSW 22:13:43 24° SSE
USA 276 4.2 22:08:59 10° WSW 22:10:46 15° SW 22:10:46 15° SW
COSMOS 2455 3.7 22:09:10 22° SSE 22:11:40 30° ESE 22:16:49 10° NE
COSMOS 2428 3.2 22:08:06 10° NNW 22:13:43 55° NE 22:17:35 20° SE
Meteor 2-6 Rocket 4.5 22:09:39 10° NNW 22:15:00 60° W 22:18:53 18° S
CZ-4C R/B 4.3 22:10:01 10° NW 22:15:33 32° N 22:22:04 10° ENE
Cosmos 1151 Rocket 4.5 22:13:06 10° NNW 22:17:00 32° W 22:20:31 12° SSW
Cosmos 1655 Rocket 4.1 22:12:44 19° S 22:17:27 72° E 22:23:51 10° NNE
Cosmos 1766 Rocket 4.4 22:15:02 10° SSW 22:19:18 48° WNW 22:23:33 10° N
S3M 4.1 22:14:28 10° NNW 22:20:52 77° W 22:25:25 21° S
USA 229 DEB 4.0 22:15:00 10° NW 22:22:12 76° NE 22:28:16 18° SE
USA 229 4.0 22:15:05 10° NW 22:22:18 75° NE 22:28:24 17° SE
Spot 4 4.3 22:21:45 25° SE 22:24:20 52° ENE 22:29:02 10° N
ATLAS 5 CENTAUR R/B 2.6 22:20:33 10° NW 22:25:44 60° NE 22:30:39 16° ESE
Cosmos 1174 3.4 22:22:57 10° NW 22:25:55 52° SW 22:26:29 43° SSW
Cosmos 1452 Rocket 3.5 22:24:41 10° NNW 22:29:59 80° ENE 22:32:49 28° SSE
Terra 2.9 22:26:49 16° SSW 22:30:08 37° W 22:34:35 10° NNW
COSMOS 2487 3.3 22:31:49 30° ESE 22:31:51 30° ESE 22:34:52 10° NE
SPOT 5 4.4 22:30:02 11° SW 22:33:19 24° W 22:36:55 10° NW
ALOS 2 3.5 22:33:57 24° ESE 22:36:01 38° ENE 22:40:06 10° N
ATLAS 2AS CENTAUR R/B 4.3 22:29:53 10° W 22:37:13 41° NNW 22:44:14 10° NE
USA 267 3.4 22:31:52 10° ENE 22:38:10 48° SE 22:44:26 10° SSW
Meteor 1-27 Rocket 3.8 22:35:21 10° NNW 22:40:59 77° W 22:44:15 27° S
SL-27 R/B 2.9 22:39:50 22° SW 22:42:01 63° WNW 22:45:38 10° NNE
NOSS 3-1 (A) 4.0 22:35:24 10° NW 22:42:39 89° NE 22:48:48 21° SE
Cosmos 2360 Rocket 3.2 22:43:48 10° NW 22:48:54 36° WSW 22:51:53 22° SSW
IRIDIUM 104 4.3 22:44:21 10° N 22:49:36 83° W 22:52:18 29° S
NOSS 2-1 (C) 3.0 22:48:04 16° SW 22:50:31 73° NW 22:54:03 10° NE
Cosmos 1805 Rocket 3.6 22:49:13 36° SSE 22:50:53 65° E 22:55:18 10° NNE
Cosmos 1110 Rocket 4.1 22:50:40 10° NNW 22:56:01 72° ENE 22:58:40 30° SE
Meteor 1-20 Rocket 4.4 22:54:51 31° SSE 22:57:28 59° E 23:03:04 10° NNE
Cosmos 1980 4.4 22:52:02 10° NNW 22:57:34 49° NE 23:01:19 20° ESE
NOSS 2-1 (D) 3.3 22:55:31 14° WSW 22:58:14 63° NW 23:01:47 10° NE
IRIDIUM 114 4.5 22:53:30 10° N 22:58:43 71° W 23:01:25 29° SSW
Cosmos 2333 Rocket 2.5 22:54:28 10° NW 23:00:01 57° WSW 23:02:38 30° S
Cosmos 1833 4.3 22:56:03 13° SW 23:01:14 79° WNW 23:07:04 10° NNE
Cosmos 1331 Rocket 4.1 22:56:11 10° NNW 23:01:28 72° ENE 23:03:58 31° SE
Cosmos 1500 Rocket 3.9 22:59:40 26° SSW 23:02:03 60° WNW 23:06:29 10° N
Cosmos 2322 4.1 23:04:40 10° NW 23:10:12 51° WSW 23:12:44 30° S
Cosmos 972 Rocket 3.9 23:07:28 28° SSW 23:10:22 88° ESE 23:15:23 10° NNE
COBE Rocket 4.1 23:09:07 32° SSW 23:11:02 55° W 23:15:41 10° NNW
NOSS 0 Rocket 3.9 23:06:16 10° NNW 23:12:33 83° ENE 23:16:01 28° SE
USA 234 3.2 23:10:02 24° SE 23:14:13 68° SW 23:20:47 10° WNW
Cosmos 468 4.4 23:16:08 34° S 23:18:25 72° ESE 23:23:39 10° NNE
Cosmos 2297 Rocket 3.5 23:17:11 22° ESE 23:18:31 24° ESE 23:22:55 10° NE
Cosmos 2322 Rocket 4.4 23:17:43 10° WNW 23:20:21 13° W 23:22:59 10° SW
Cosmos 2237 Rocket 2.5 23:15:06 10° NNW 23:20:46 65° NE 23:24:02 26° SE
Lacrosse 5 3.5 23:21:59 18° ESE 23:21:59 18° ESE 23:24:33 10° E
Cosmos 2084 Rocket 3.5 23:18:06 10° NW 23:22:16 74° NE 23:24:07 33° ESE
NOSS 2-2 (E) 4.4 23:18:26 10° NW 23:23:26 76° NE 23:28:32 19° SE
Meteor 1-18 Rocket 4.3 23:18:20 10° NNW 23:24:15 83° ENE 23:26:56 34° SSE
Cosmos 1500 3.4 23:26:57 47° SE 23:27:33 54° E 23:31:21 10° NNE
Cosmos 2285 Rocket 4.5 23:23:37 10° NNW 23:29:39 49° WSW 23:32:33 29° SSW
Cosmos 1470 Rocket 4.3 23:29:03 32° ESE 23:30:02 37° E 23:34:02 10° NNE
Cosmos 2227 Rocket 3.6 23:28:53 20° ESE 23:30:14 22° ESE 23:34:30 10° NE
Sich 1 3.2 23:28:46 37° SSW 23:30:24 68° WNW 23:34:45 10° N
Okean 1 3.3 23:26:48 10° NNW 23:30:49 73° W 23:31:46 50° SSW
Meteor 1-25 Rocket 4.2 23:30:16 31° SSW 23:33:03 83° WNW 23:38:39 10° NNE
Cosmos 1633 Rocket 3.1 23:33:06 45° SSE 23:34:17 68° E 23:38:38 10° NNE
Cosmos 494 Rocket 3.9 23:33:17 36° SSW 23:35:23 80° ESE 23:40:33 10° NNE
Cosmos 1666 Rocket 3.5 23:37:07 45° S 23:38:29 88° E 23:42:57 10° N
Cosmos 1048 Rocket 4.0 23:39:38 29° SW 23:42:18 75° WNW 23:47:27 10° NNE
Cosmos 2219 Rocket 3.1 23:37:44 10° NW 23:42:45 34° WSW 23:44:40 27° SW
Meteor 1-19 Rocket 4.4 23:41:41 10° NNW 23:47:15 59° W 23:49:32 34° SSW
NOSS 2-2 (C) 4.2 23:42:42 10° NW 23:47:41 86° NE 23:52:23 21° SE
SL-16 R/B 3.2 23:42:34 10° NNW 23:47:59 44° NE 23:52:42 13° ESE
SL-08 R/B 4.4 23:45:16 33° S 23:48:16 85° E 23:54:28 10° N
Cosmos 1602 4.5 23:52:57 34° WSW 23:54:06 45° WNW 23:57:50 10° N
